Tracking 19564 objects as of 20-Mar-2019
HD Live streaming from Space Station
objects crossing your sky now

TVSAT 2

Track TVSAT 2 now!
TVSAT 2 is classified as:


NORAD ID: 20168
Int'l Code: 1989-062A
Perigee: 35,898.4 km
Apogee: 35,929.0 km
Inclination: 14.5 °
Period: 1,442.2 minutes
Semi major axis: 42284 km
RCS: 2.0976 m2 (large)
Launch date: August 8, 1989
Source: Germany (GER)
Launch site: FRENCH GUIANA (FRGUI)
aabbcc
Your satellite tracking list
Your tracking list is empty




NASA's NSSDC Master Catalog

Two Line Element Set (TLE):
1 20168U 89062A   19077.51029242 -.00000271 +00000-0 +00000-0 0  9992
2 20168 014.5109 017.2902 0003611 346.0109 290.2056 00.99845444108060
Source of the keplerian elements: AFSPC